Regional Weather Roundup
Issued by NWS

Home | Current Version | Previous Version | Text Only | Print | Product List | Glossary On
Versions: 1 2 3 4 5 6 7 8 9 10 11 12 13 14 15 16 17 18 19 20 21 22 23 24 25 26 27 28 29 30 31 32 33 34 35 36 37 38 39 40 41 42 43 44 45 46 47 48 49 50
000
ASUS43 KOAX 280410
RWRNE

WEATHER ROUNDUP FOR NEBRASKA
NATIONAL WEATHER SERVICE OMAHA NE
1000 PM CST TUE JAN 27 2015

NOTES: SATELLITE DATA IS BEING USED TO AUGMENT CLOUD COVER ABOVE
       12000 FEET.
       "FAIR" INDICATES FEW OR NO CLOUDS BELOW 12,000 FEET WITH NO
       SIGNIFICANT WEATHER AND/OR OBSTRUCTIONS TO VISIBILITY.

  * THESE STATIONS DO NOT REPORT WEATHER SUCH AS RAIN...SNOW OR FOG.

NEZ001>004-019>022-054>056-280500-
NEBRASKA PANHANDLE

CITY           SKY/WX    TMP DP  RH WIND       PRES   REMARKS
SCOTTSBLUFF      N/A    N/A N/A N/A MISG      29.96S
ALLIANCE       CLEAR     35  27  72 SW5       29.94S WCI  31
CHADRON        CLEAR     38  31  76 W5        29.90R WCI  34
KIMBALL        PTCLDY    38  28  66 W10       29.98F WCI  31
SIDNEY         PTCLDY    39  29  67 NW12      29.97S WCI  32
$$

NEZ057>060-069>072-079>082-280500-
SOUTHWEST NEBRASKA

CITY           SKY/WX    TMP DP  RH WIND       PRES   REMARKS
NORTH PLATTE   MOCLDY    32  25  75 CALM      29.91S
IMPERIAL       PTCLDY    44  27  51 CALM      29.92F
LEXINGTON      PTCLDY    39  30  70 SE5       29.91S
MCCOOK         MOCLDY    53  30  41 S3        29.90F
OGALLALA       PTCLDY    37  29  74 W3        29.91F
$$

NEZ005>010-023>029-035>040-094-280500-
NORTH CENTRAL NEBRASKA

CITY           SKY/WX    TMP DP  RH WIND       PRES   REMARKS
VALENTINE      PTCLDY    39  31  72 W7        29.86F WCI  34
AINSWORTH      PTCLDY    38  30  72 S5        29.86F WCI  35
BROKEN BOW     PTCLDY    34  28  79 CALM      29.90S
O`NEILL        CLEAR     42  35  76 S10       29.90S
ORD            CLEAR     37  30  75 CALM      29.90S
THEDFORD       MOCLDY    44  32  62 W5        29.90S
$$

NEZ041-046>049-061>064-073>077-083>087-280500-
SOUTH CENTRAL NEBRASKA

CITY           SKY/WX    TMP DP  RH WIND       PRES   REMARKS
GRAND ISLAND   PTCLDY    41  31  67 SE8       29.93F
AURORA         CLEAR     37  30  76 SE10      29.94F WCI  30
HASTINGS       CLEAR     44  31  60 SE9       29.92F
HEBRON         CLEAR     41  30  65 E7        29.93F
HOLDREGE       CLEAR     42  29  59 S6        29.91F
KEARNEY *      CLEAR     43  28  56 S6        29.92S
YORK           CLEAR     41  32  70 SE13      29.95F
$$

NEZ011>018-030>034-042>045-280500-
NORTHEAST NEBRASKA

CITY           SKY/WX    TMP DP  RH WIND       PRES   REMARKS
NORFOLK        CLEAR     42  31  64 SE13      29.94F
ALBION         CLEAR     36  29  77 SE3       29.94F
BLAIR          CLEAR     42  30  62 SE10      30.00F
COLUMBUS *     CLEAR     43  28  56 SE8       29.98F
FREMONT        CLEAR     42  31  64 SE13      29.99F
TEKAMAH        CLEAR     35  29  78 SE10      30.01F WCI  27
WAYNE          CLEAR     37  31  79 S9        29.97F WCI  30
$$

NEZ050>053-065>068-078-088>093-280500-
SOUTHEAST NEBRASKA

CITY           SKY/WX    TMP DP  RH WIND       PRES   REMARKS
LINCOLN        CLEAR     43  30  60 SE10      30.00F
OMAHA EPPLEY   CLEAR     40  30  67 S15       30.03F WCI  32
BEATRICE       CLEAR     44  31  61 SE9       29.97F
FALLS CITY     CLEAR     40  30  67 SE10      30.04S WCI  33
NEBRASKA CITY  CLEAR     41  26  56 SE12      30.03F
PLATTSMOUTH    CLEAR     41  29  62 SE13G20   30.01F
$$

NEZ044-045-051>053-067-280500-
OMAHA AREA

CITY           SKY/WX    TMP DP  RH WIND       PRES   REMARKS
OMAHA EPPLEY   CLEAR     40  30  67 S15       30.03F WCI  32
BLAIR          CLEAR     42  30  62 SE10      30.00F
FREMONT        CLEAR     42  31  64 SE13      29.99F
MILLARD        CLEAR     40  30  69 SE6       30.02F
OFFUTT AFB     CLEAR     39  30  70 E12       30.02F WCI  32
PLATTSMOUTH    CLEAR     41  29  62 SE13G20   30.01F
WAHOO          FAIR      34  28  76 SE8       30.00F WCI  27
$$


USA.gov is the U.S. government's official web portal to all federal, state and local government web resources and services.